DW7649 Weather Reports


Display with metric or nautical units.
time (UTC)temp
F
wind
direction
speed
MPH
gust
MPH
rain 1hr
in
rain 24hr
in
rain mn
in
humidity
%
barometer
mb
20200219003654 52 180 0.0 2.0 0.00 0.00 0.00 62 1016.1
20200219002754 52 185 1.0 3.0 0.00 0.00 0.00 63 1016.2
20200219001854 53 196 0.0 1.0 0.00 0.00 0.00 62 1015.8
20200219000954 53 196 0.0 2.0 0.00 0.00 0.00 60 1015.5
20200219000055 54 165 1.0 3.0 0.00 0.00 0.00 59 1015.4
20200218235154 54 144 1.0 4.0 0.00 0.00 0.00 58 1015.6
20200218234254 54 207 1.0 4.0 0.00 0.00 0.00 58 1015.7
20200218233354 54 208 0.0 2.0 0.00 0.00 0.00 57 1015.8
20200218232454 54 177 1.0 3.0 0.00 0.00 0.00 56 1015.8
20200218231554 54 156 1.0 4.0 0.00 0.00 0.00 56 1015.7
20200218230654 55 211 1.0 4.0 0.00 0.00 0.00 55 1015.4
20200218225754 55 195 1.0 3.0 0.00 0.00 0.00 54 1015.7
20200218224854 55 202 1.0 4.0 0.00 0.00 0.00 54 1015.6
20200218223954 55 166 1.0 5.0 0.00 0.00 0.00 53 1015.7
20200218223115 56 167 1.0 7.0 0.00 0.00 0.00 53 1015.7
20200218222154 56 211 3.0 10.0 0.00 0.00 0.00 52 1015.7
20200218221254 56 220 2.0 7.0 0.00 0.00 0.00 52 1015.7
20200218220415 56 222 2.0 8.0 0.00 0.00 0.00 51 1015.8
20200218215454 56 208 2.0 11.0 0.00 0.00 0.00 51 1015.7
20200218214554 57 172 2.0 7.0 0.00 0.00 0.00 51 1015.7
20200218213654 57 195 2.0 6.0 0.00 0.00 0.00 51 1015.8
20200218212815 57 191 2.0 6.0 0.00 0.00 0.00 51 1015.6
20200218211854 57 203 2.0 6.0 0.00 0.00 0.00 51 1015.4
20200218211015 57 212 2.0 5.0 0.00 0.00 0.00 51 1015.7
20200218210054 57 219 1.0 4.0 0.00 0.00 0.00 50 1015.6
20200218205215 57 167 2.0 10.0 0.00 0.00 0.00 51 1015.8
20200218204254 57 196 3.0 7.0 0.00 0.00 0.00 49 1015.9
20200218203354 57 149 3.0 9.0 0.00 0.00 0.00 50 1015.3
20200218202454 58 177 5.0 15.0 0.00 0.00 0.00 49 1015.4
20200218201554 58 176 3.0 8.0 0.00 0.00 0.00 49 1015.4
20200218200654 58 165 3.0 14.0 0.00 0.00 0.00 47 1015.4
20200218195754 58 173 4.0 13.0 0.00 0.00 0.00 45 1015.6
20200218194854 59 174 4.0 9.0 0.00 0.00 0.00 45 1015.6
20200218193954 59 211 3.0 10.0 0.00 0.00 0.00 43 1015.4
20200218193054 60 156 4.0 11.0 0.00 0.00 0.00 42 1015.8
20200218192154 60 152 4.0 15.0 0.00 0.00 0.00 41 1015.9
20200218191254 60 167 4.0 13.0 0.00 0.00 0.00 40 1015.8
20200218190354 60 165 5.0 15.0 0.00 0.00 0.00 40 1016.4
20200218185454 58 185 3.0 9.0 0.00 0.00 0.00 41 1016.7
20200218184554 58 228 5.0 14.0 0.00 0.00 0.00 39 1017.0
20200218183654 58 206 4.0 12.0 0.00 0.00 0.00 40 1017.0
20200218182754 58 147 4.0 11.0 0.00 0.00 0.00 39 1017.3
20200218181854 58 168 5.0 19.0 0.00 0.00 0.00 39 1017.1
20200218180954 58 179 5.0 17.0 0.00 0.00 0.00 38 1017.7
20200218180054 58 174 4.0 13.0 0.00 0.00 0.00 38 1017.9
20200218175154 58 149 4.0 12.0 0.00 0.00 0.00 39 1018.1
20200218174254 57 198 4.0 12.0 0.00 0.00 0.00 38 1018.3
20200218173354 57 212 4.0 11.0 0.00 0.00 0.00 37 1018.6
20200218172454 57 212 5.0 12.0 0.00 0.00 0.00 38 1019.1
20200218171554 56 163 5.0 12.0 0.00 0.00 0.00 38 1019.0
20200218170654 56 152 4.0 12.0 0.00 0.00 0.00 38 1019.0
20200218165754 56 171 4.0 10.0 0.00 0.00 0.00 39 1019.3
20200218164854 56 157 4.0 14.0 0.00 0.00 0.00 38 1019.5
20200218163954 55 153 4.0 13.0 0.00 0.00 0.00 39 1019.9
20200218163054 54 162 4.0 13.0 0.00 0.00 0.00 40 1020.5
20200218162154 54 160 4.0 12.0 0.00 0.00 0.00 40 1020.7
20200218161254 53 149 4.0 11.0 0.00 0.00 0.00 41 1020.8
20200218160354 52 171 3.0 15.0 0.00 0.00 0.00 39 1021.1
20200218155454 52 162 3.0 10.0 0.00 0.00 0.00 40 1021.2
20200218154554 51 177 4.0 12.0 0.00 0.00 0.00 40 1021.1
20200218153654 51 158 2.0 10.0 0.00 0.00 0.00 45 1021.4
20200218152754 50 137 4.0 12.0 0.00 0.00 0.00 43 1021.5
20200218151854 50 145 2.0 9.0 0.00 0.00 0.00 43 1021.8
20200218150954 49 155 2.0 8.0 0.00 0.00 0.00 44 1022.0
20200218145050 48 167 2.0 8.0 0.00 0.00 0.00 48 1022.1
20200218144150 47 154 3.0 9.0 0.00 0.00 0.00 49 1022.1
20200218143250 46 201 3.0 9.0 0.00 0.00 0.00 51 1022.3
20200218142350 46 181 2.0 8.0 0.00 0.00 0.00 52 1022.3
20200218141450 46 150 3.0 8.0 0.00 0.00 0.00 54 1022.3
20200218140550 44 156 3.0 7.0 0.00 0.00 0.00 56 1022.4
20200218135650 43 132 2.0 6.0 0.00 0.00 0.00 59 1022.7
20200218134750 42 156 1.0 4.0 0.00 0.00 0.00 60 1022.8
20200218133850 41 133 1.0 4.0 0.00 0.00 0.00 63 1022.9
20200218132950 40 123 1.0 3.0 0.00 0.00 0.00 64 1022.8
20200218132050 39 113 1.0 3.0 0.00 0.00 0.00 66 1023.0
20200218131150 37 112 1.0 2.0 0.00 0.00 0.00 70 1023.1
20200218130250 35 112 1.0 2.0 0.00 0.00 0.00 71 1023.4
20200218125350 34 112 1.0 2.0 0.00 0.00 0.00 71 1023.5
20200218124450 34 0 0.0 0.0 0.00 0.00 0.00 69 1023.7
20200218123550 34 0 0.0 0.0 0.00 0.00 0.00 69 1023.7
20200218122650 34 0 0.0 0.0 0.00 0.00 0.00 69 1023.6
20200218121750 34 112 0.0 1.0 0.00 0.00 0.00 68 1023.5
20200218120850 34 112 0.0 1.0 0.00 0.00 0.00 68 1023.4
20200218115950 34 0 0.0 0.0 0.00 0.00 0.00 68 1023.4
20200218115050 34 0 0.0 0.0 0.00 0.00 0.00 69 1023.6
20200218114150 34 112 0.0 1.0 0.00 0.00 0.00 69 1023.4
20200218113250 34 0 0.0 0.0 0.00 0.00 0.00 69 1023.4
20200218112350 34 0 0.0 0.0 0.00 0.00 0.00 69 1023.2
20200218111450 34 112 0.0 1.0 0.00 0.00 0.00 69 1023.2
20200218110550 35 112 0.0 1.0 0.00 0.00 0.00 69 1023.1
20200218105650 35 112 0.0 1.0 0.00 0.00 0.00 70 1023.2
20200218104750 35 0 0.0 0.0 0.00 0.00 0.00 69 1023.4
20200218103850 34 112 0.0 1.0 0.00 0.00 0.00 69 1023.3
20200218102950 34 112 0.0 1.0 0.00 0.00 0.00 69 1023.3
20200218102050 34 112 0.0 1.0 0.00 0.00 0.00 69 1023.5
20200218101150 34 0 0.0 0.0 0.00 0.00 0.00 68 1023.6
20200218100250 34 0 0.0 0.0 0.00 0.00 0.00 67 1023.5
20200218095350 34 0 0.0 0.0 0.00 0.00 0.00 68 1023.4
20200218094450 34 0 0.0 0.0 0.00 0.00 0.00 68 1023.7
20200218093550 34 112 0.0 1.0 0.00 0.00 0.00 68 1023.8
20200218092650 34 112 0.0 2.0 0.00 0.00 0.00 68 1023.6
20200218091750 34 112 0.0 1.0 0.00 0.00 0.00 69 1023.9
20200218090850 34 112 0.0 1.0 0.00 0.00 0.00 68 1023.8
20200218085950 34 0 0.0 0.0 0.00 0.00 0.00 68 1024.1
20200218085050 34 112 0.0 1.0 0.00 0.00 0.00 67 1023.8
20200218084150 34 0 0.0 0.0 0.00 0.00 0.00 68 1023.9
20200218083250 34 0 0.0 0.0 0.00 0.00 0.00 68 1023.9
20200218082350 34 0 0.0 0.0 0.00 0.00 0.00 68 1024.0
20200218081450 34 112 0.0 1.0 0.00 0.00 0.00 68 1024.0
20200218080550 34 112 0.0 1.0 0.00 0.00 0.00 68 1024.1
20200218075650 34 112 0.0 1.0 0.00 0.00 0.00 68 1024.0
20200218074750 34 112 0.0 1.0 0.00 0.00 0.00 69 1023.9
20200218073850 34 0 0.0 0.0 0.00 0.00 0.00 68 1024.1
20200218072949 34 112 0.0 1.0 0.00 0.00 0.00 68 1024.1
20200218072049 34 0 0.0 0.0 0.00 0.00 0.00 69 1024.2
20200218071149 34 0 0.0 0.0 0.00 0.00 0.00 68 1024.3
20200218070250 34 112 0.0 1.0 0.00 0.00 0.00 68 1024.3
20200218065349 34 112 1.0 2.0 0.00 0.00 0.00 68 1024.4
20200218064449 34 0 0.0 0.0 0.00 0.00 0.00 68 1024.5
20200218063550 34 0 0.0 0.0 0.00 0.00 0.00 69 1024.7
20200218062650 33 0 0.0 0.0 0.00 0.00 0.00 69 1024.8
20200218061749 33 0 0.0 0.0 0.00 0.00 0.00 69 1024.6
20200218060849 33 0 0.0 0.0 0.00 0.00 0.00 69 1024.6
20200218055950 33 0 0.0 0.0 0.00 0.00 0.00 69 1024.5
20200218055050 33 0 0.0 0.0 0.00 0.00 0.00 69 1024.5
20200218054150 32 0 0.0 0.0 0.00 0.00 0.00 70 1024.4
20200218053249 32 112 0.0 1.0 0.00 0.00 0.00 69 1024.2
20200218052350 32 112 0.0 1.0 0.00 0.00 0.00 68 1024.1
20200218051449 32 112 0.0 1.0 0.00 0.00 0.00 68 1024.2
20200218050549 33 112 0.0 1.0 0.00 0.00 0.00 69 1024.2
20200218045649 33 0 0.0 0.0 0.00 0.00 0.00 69 1024.2
20200218044749 33 0 0.0 0.0 0.00 0.00 0.00 68 1024.3
20200218043849 33 112 0.0 1.0 0.00 0.00 0.00 67 1024.4
20200218042949 33 112 0.0 1.0 0.00 0.00 0.00 67 1024.5
20200218042049 33 112 0.0 1.0 0.00 0.00 0.00 67 1024.5
20200218041149 33 0 0.0 0.0 0.00 0.00 0.00 67 1024.6
20200218040249 33 112 0.0 1.0 0.00 0.00 0.00 67 1024.7
20200218035349 33 0 0.0 0.0 0.00 0.00 0.00 67 1024.6
20200218034449 33 0 0.0 0.0 0.00 0.00 0.00 66 1024.7
20200218033549 33 0 0.0 0.0 0.00 0.00 0.00 67 1024.7
20200218032649 33 0 0.0 0.0 0.00 0.00 0.00 66 1024.8
20200218031749 34 0 0.0 0.0 0.00 0.00 0.00 65 1025.0
20200218030849 34 112 0.0 1.0 0.00 0.00 0.00 65 1025.1
20200218025949 34 112 0.0 1.0 0.00 0.00 0.00 65 1025.1
20200218025049 34 112 0.0 1.0 0.00 0.00 0.00 64 1025.1
20200218024149 35 112 1.0 1.0 0.00 0.00 0.00 64 1025.0
20200218023249 35 0 0.0 0.0 0.00 0.00 0.00 64 1024.8
20200218022349 36 112 0.0 1.0 0.00 0.00 0.00 62 1025.1
20200218021450 36 112 0.0 1.0 0.00 0.00 0.00 62 1025.1
20200218020549 36 112 0.0 1.0 0.00 0.00 0.00 61 1024.9
20200218015649 37 0 0.0 0.0 0.00 0.00 0.00 60 1024.8
20200218014749 37 0 0.0 0.0 0.00 0.00 0.00 60 1024.9
20200218013849 37 0 0.0 0.0 0.00 0.00 0.00 59 1024.8
20200218012949 37 112 0.0 1.0 0.00 0.00 0.00 58 1024.8
20200218012049 38 112 0.0 1.0 0.00 0.00 0.00 59 1024.8
20200218011149 38 0 0.0 0.0 0.00 0.00 0.00 59 1024.9
20200218010249 38 0 0.0 0.0 0.00 0.00 0.00 60 1024.8
20200218005349 38 0 0.0 0.0 0.00 0.00 0.00 58 1024.9
20200218004449 38 0 0.0 0.0 0.00 0.00 0.00 58 1024.8